This is the latest recevied weather packets stored in our database for station/object KE0PRS. If no packets are shown the sender has not sent any weather packets the latest 1 day(s).
| Time | Temp. | Humidity | Pressure | Rain* | Wind** | Luminosity | Snow |
|---|---|---|---|---|---|---|---|
| 1778017694 | 11.67° C | 48% | 1013 hPa | 0 mm | 2.24 m/s, 126° | 240 W/m² | - |
| 1778017391 | 11.67° C | 49% | 1013.1 hPa | 0 mm | 0.45 m/s, 57° | 193 W/m² | - |
| 1778017088 | 11.67° C | 50% | 1013.1 hPa | 0 mm | 1.34 m/s, 38° | 194 W/m² | - |
| 1778016786 | 11.67° C | 50% | 1013.1 hPa | 0 mm | 0.89 m/s, 46° | 133 W/m² | - |
| 1778016481 | 11.67° C | 49% | 1013.1 hPa | 0 mm | 3.13 m/s, 8° | 120 W/m² | - |
| 1778016179 | 11.67° C | 49% | 1013.2 hPa | 0 mm | 1.34 m/s, 91° | 129 W/m² | - |
| 1778015875 | 11.67° C | 50% | 1013.3 hPa | 0 mm | 0.89 m/s, 38° | 140 W/m² | - |
| 1778015573 | 11.67° C | 49% | 1013.1 hPa | 0 mm | 2.24 m/s, 39° | 173 W/m² | - |
| 1778015269 | 11.67° C | 50% | 1013.2 hPa | 0 mm | 2.68 m/s, 43° | 211 W/m² | - |
| 1778014966 | 12.22° C | 49% | 1013.5 hPa | 0 mm | 1.79 m/s, 98° | 235 W/m² | - |
| 1778014663 | 12.22° C | 50% | 1013.3 hPa | 0 mm | 3.58 m/s, 31° | 272 W/m² | - |
| 1778014362 | 11.67° C | 50% | 1013.4 hPa | 0 mm | 2.68 m/s, 54° | 333 W/m² | - |
| 1778014058 | 11.67° C | 51% | 1013.6 hPa | 0 mm | 3.13 m/s, 21° | 244 W/m² | - |
| 1778013756 | 11.67° C | 51% | 1013.6 hPa | 0 mm | 1.79 m/s, 3° | 194 W/m² | - |
| 1778013452 | 12.22° C | 50% | 1013.3 hPa | 0 mm | 0.45 m/s, 118° | 157 W/m² | - |
| 1778013150 | 12.22° C | 49% | 1013.4 hPa | 0 mm | 2.24 m/s, 1° | 220 W/m² | - |
| 1778012845 | 12.78° C | 49% | 1013.4 hPa | 0 mm | 2.24 m/s, 28° | 211 W/m² | - |
| 1778012541 | 12.78° C | 49% | 1013.6 hPa | 0 mm | 0.45 m/s, 208° | 169 W/m² | - |
| 1778012238 | 13.33° C | 47% | 1013.5 hPa | 0 mm | 3.58 m/s, 48° | 241 W/m² | - |
| 1778011936 | 13.89° C | 46% | 1013.3 hPa | 0 mm | 1.79 m/s, 58° | 425 W/m² | - |
| 1778011634 | 13.33° C | 48% | 1013.1 hPa | 0 mm | 1.79 m/s, 352° | 572 W/m² | - |
| 1778011331 | 13.33° C | 47% | 1013.3 hPa | 0 mm | 2.24 m/s, 284° | 528 W/m² | - |
| 1778011026 | 13.89° C | 47% | 1013.3 hPa | 0 mm | 1.34 m/s, 69° | 392 W/m² | - |
| 1778010724 | 13.89° C | 47% | 1013.4 hPa | 0 mm | 0.89 m/s, 150° | 495 W/m² | - |
| 1778010421 | 13.89° C | 47% | 1013.5 hPa | 0 mm | 1.34 m/s, 113° | 370 W/m² | - |
* Rain latest hour (hover to see other rain measurements)
** Current wind speed in m/s (hover to see current wind gust speed)